Home   Weather   Thule Air Base   Past weeks
Flag for Greenland

Past Weather in Thule Air Base, Greenland — Yesterday and Last 2 Weeks

Now
25 °F

Overcast.


Feels Like: 8 °F
Forecast: 31 / 21 °F
Wind: 31 mph from East

Location: Thule A. B.

Current Time: Oct 14, 2019 at 12:38:05 pm

Latest Report: Oct 14, 2019 at 10:56 am


Visibility: N/A

Pressure: 29.64 "Hg

Humidity: 93%

Dew Point: 23 °F

Location of Thule Air BaseLocation

Past Weather in Thule Air Base — Graph

°F

Thule Air Base Temperature Yesterday

Maximum temperature yesterday: 28 °F (at 12:56 am)
Minimum temperature yesterday: 18 °F (at 9:56 am)
Average temperature yesterday: 21 °F

High & Low Weather Summary for the Past Weeks

 TemperatureHumidityPressure
High45 °F (Sep 29, 8:56 pm)100% (Oct 1, 5:16 pm)29.97 "Hg (Oct 1, 5:16 pm)
Low18 °F (Oct 13, 9:56 am)52% (Oct 10, 5:56 pm)29.04 "Hg (Oct 5, 6:56 pm)
Average31 °F90%29.63 "Hg
* Reported Sep 29 10:56 am — Oct 14 10:56 am, Thule Air Base. Weather by CustomWeather, © 2019

Note: Actual official high and low records may vary slightly from our data, if they occured in-between our weather recording intervals... More about our weather records

Advertising

Thule Air Base Weather History for the Previous 24 Hours

Scroll right to see more
 ConditionsComfort  
Time TempWeatherWind HumidityBarometerVisibility
10:56 am
Mon, Oct 14
25 °FOvercast.31 mph93%29.64 "HgN/A
9:56 am25 °FClear.25 mph86%29.64 "HgN/A
8:56 am23 °FPassing clouds.16 mph86%29.67 "HgN/A
7:56 am25 °FPassing clouds.23 mph74%29.68 "HgN/A
7:17 am23 °FClear.14 mph80%29.67 "HgN/A
6:56 am25 °FClear.20 mph69%29.67 "HgN/A
6:25 am23 °FClear.16 mph74%29.68 "HgN/A
5:56 am21 °FClear.7 mph80%29.69 "HgN/A
4:56 am21 °FClear.8 mph76%29.70 "HgN/A
3:56 am19 °FClear.7 mph86%29.71 "HgN/A
2:56 am21 °FClear.7 mph86%29.71 "HgN/A
1:56 am21 °FClear.10 mph80%29.71 "HgN/A
12:56 am21 °FClear.18 mph93%29.71 "HgN/A
11:56 pm
Sun, Oct 13
20 °FClear.14 mph86%29.72 "HgN/A
10:56 pm21 °FClear.16 mph93%29.72 "HgN/A
10:32 pm21 °FClear.15 mph93%29.72 "HgN/A
9:56 pm23 °FClear.23 mph86%29.72 "HgN/A
8:56 pm21 °FClear.14 mph86%29.73 "HgN/A
7:56 pm18 °FClear.9 mph86%29.74 "HgN/A
6:56 pm19 °FClear.10 mph79%29.74 "HgN/A
5:56 pm18 °FSunny.9 mph86%29.74 "HgN/A
4:56 pm18 °FSunny.10 mph93%29.75 "HgN/A
3:56 pm19 °FSunny.9 mph93%29.75 "HgN/A
2:56 pm19 °FSunny.9 mph93%29.76 "HgN/A
1:56 pm20 °FSunny.8 mph97%29.77 "HgN/A
12:56 pm21 °FSunny.6 mph93%29.78 "HgN/A
Weather by CustomWeather, © 2019

See weather overview